Orange Lake, Florida
Current Conditions -  °F | °C
As of 12:15 AM on Friday 31 Oct 2014 (Local Time) from KOCF Reporting Station
Few Clouds Few Clouds  
Wind Chill: 64°   Ceiling: Unl
Heat Index: 64°   Visibility: 10mi
Dew Point: 61°   Wind: 0mph
Humidity: 88%   Direction: NA
Pressure: 29.91"   Gusts: NA
Location:  29.43°N, 82.22°W
Report Text: KOCF 310415Z AUTO 00000KT 10SM FEW110 18/16 A2991 RMK AO1
Loading
Personal Weather Stations






























Interactive Weather Map
Tropical Storm Tracking
New forecast layout! Learn more

10-Day Weather Forecast

Advertisements
Track Severe Weather on mobile